Regional Weather Roundup
Issued by NWS Wakefield, VA

Home | Current Version | Previous Version | Text Only | Print | Product List | Glossary On
Versions: 1 2 3 4 5 6 7 8 9 10 11 12 13 14 15 16 17 18 19 20 21 22 23 24 25 26 27 28 29 30 31 32 33 34 35 36 37 38 39 40 41 42 43 44 45 46 47 48 49 50
000
ASUS41 KAKQ 121410
RWRAKQ

REGIONAL WEATHER ROUNDUP
NATIONAL WEATHER SERVICE WAKEFIELD VA
1000 AM EDT SAT JUL 12 2014

Note: "fair" indicates few or no clouds below 12,000 feet with no
significant weather and/or obstructions to visibility. * = Denotes
station may not report precipitation (e.g., rain,snow,etc.),
thunder or fog.

VAZ042-051-052>054-056-121500-
NORTHERN VIRGINIA

CITY           SKY/WX    TMP DP  RH WIND       PRES   REMARKS
WASH NATIONAL  PTSUNNY   81  70  69 S9        30.22S
DULLES         MOSUNNY   78  70  76 S9        30.21F
FORT BELVOIR   NOT AVBL
QUANTICO       PTSUNNY   78  72  81 S8        30.22S
FREDERICKSBRG* PTSUNNY   81  73  74 SW7       30.21S
STAFFORD*      PTSUNNY   79  76  89 SE3       30.26S
WARRENTON      PTSUNNY   80  76  87 SW6       30.22S
CULPEPER*      PTSUNNY  N/A N/A N/A CALM      30.22S
MANASSAS*      NOT AVBL
LEESBURG*      MOSUNNY   79  73  83 S7        30.23S
WINCHESTER     SUNNY     79  66  65 S6        30.21S
$$

VAZ048-049-060>072-079>083-121500-
CENTRAL AND SOUTH CENTRAL VIRGINIA...AND NORTH CENTRAL NORTH CAROLINA

CITY           SKY/WX    TMP DP  RH WIND       PRES   REMARKS
RICHMOND       PTSUNNY   80  70  71 CALM      30.23S
CHESTERFIELD*  PTSUNNY   81  64  57 SW3       30.25S
HANOVER        MOSUNNY   82  70  66 VRB5      30.24S
TAPPAHANNOCK*  MOSUNNY   77  68  72 CALM      30.24S
CHARLOTTSVILLE MOSUNNY   77  70  79 CALM      30.22F
ORANGE*        PTSUNNY   79  70  73 SE5       30.23F
LOUISA*        PTSUNNY   79  72  78 S3        30.22S
FARMVILLE*     MOSUNNY   81  70  69 S5        30.21S
SOUTH HILL*    SUNNY     81  70  69 CALM      30.29S
ROANOKE RAPIDS MOSUNNY   57  55  94 CALM      30.23F
RALEIGH        MOSUNNY   80  68  66 CALM      30.23S
$$

VAZ088>098-121500-
SOUTHEAST VIRGINIA

CITY           SKY/WX    TMP DP  RH WIND       PRES   REMARKS
NORFOLK        MOSUNNY   76  69  79 NE6       30.22S
VIRGINIA BEACH MOSUNNY   78  69  73 NE8       30.22R
NORFOLK NAVAL  MOSUNNY   79  70  74 NE8       30.24S
WEST POINT*    SUNNY     80  66  63 CALM      30.24F
NEWPORT NEWS   SUNNY     83  68  60 CALM      30.22F
LANGLEY AFB    NOT AVBL
FORT EUSTIS    NOT AVBL
WILLIAMSBURG*  SUNNY     81  73  78 CALM      30.23F
FRANKLIN*      SUNNY     73  72  94 CALM      30.23S
WAKEFIELD      SUNNY     79  69  71 CALM      30.23S
$$

VAZ020-022-025-037-045-121500-
WESTERN AND SOUTHWEST VIRGINIA

CITY           SKY/WX    TMP DP  RH WIND       PRES   REMARKS
STAUNTON*      MOSUNNY   78  65  63 S5        30.25F
HOT SPRINGS VA MOSUNNY   69  59  72 SW7       30.37F
LYNCHBURG      MOSUNNY   79  70  74 SW3       30.26R
DANVILLE       SUNNY     79  70  74 W3        30.24S
MARTINSVILLE   SUNNY     77  70  78 CALM      30.28S
ROANOKE        MOSUNNY   77  66  68 CALM      30.27S
BLACKSBURG     MOSUNNY   75  70  83 CALM      30.31F
DUBLIN*        MOSUNNY   75  69  80 CALM      30.31S
MARION*        SUNNY     74  68  80 E5        30.33S
HILLSVILLE*    MOSUNNY   73  66  79 SW7       30.32S
RICHLANDS*     MOSUNNY   78  66  66 SW5       30.30S
WISE*          PTSUNNY   75  63  64 S6        30.30F
ABINGDON*      SUNNY     77  66  67 SE5       30.27F
$$

MDZ021>025-VAZ099-100-121500-
SOUTHERN MARYLAND AND THE DELMARVA PENINSULA

CITY           SKY/WX    TMP DP  RH WIND       PRES   REMARKS
PATUXENT RIVER PTSUNNY   78  69  73 CALM      30.22S
BAY BRIDGE APT   N/A     77  72  83 W7        30.22S
LEONARDTOWN    PTSUNNY   77  68  73 MISG      30.25R
DOVER          NOT AVBL
GEORGETOWN     SUNNY     77  69  76 VRB5      30.24S
EASTON         MOSUNNY   81  77  89 CALM      30.26S
CAMBRIDGE      SUNNY     79  70  73 SE3       30.22S
SALISBURY      SUNNY     78  68  71 E3        30.23S
OCEAN CITY     SUNNY     75  68  78 E5        30.24R
WALLOPS ISLAND MOSUNNY   77  69  76 SE5       30.24S
ACCOMACK*        N/A     73  68  83 CALM      30.24R
$$

NCZ012>017-030>032-121500-
EASTERN NORTH CAROLINA

CITY           SKY/WX    TMP DP  RH WIND       PRES   REMARKS
ELIZABETH CITY MOSUNNY   77  70  79 CALM      30.23R
AHOSKIE*       MOSUNNY   76  70  83 CALM      30.23F
EDENTON*       MOSUNNY   76  71  83 N3        30.23S
CURRITUCK*     PTSUNNY   79  69  72 NE5       30.24R
KILL DEVIL HLS MOSUNNY   77  70  79 NE6       30.22R
MANTEO         NOT AVBL
CAPE HATTERAS  PTSUNNY   79  71  76 NE8       30.23R
GOLDSBORO      NOT AVBL
WASHINGTON     SUNNY     76  71  84 E6        30.23R
GREENVILLE     SUNNY     79  72  78 N5        30.23S HAZE
NEW BERN       MOSUNNY   81  72  74 E6        30.23R
WILMINGTON     SUNNY     83  73  72 N5        30.20F
$$

VAZ048-121500-
ELSEWHERE

CITY           SKY/WX    TMP DP  RH WIND       PRES   REMARKS
HARRISBURG PA  PTSUNNY   79  69  71 VRB5      30.20F
BALTIMORE      PTSUNNY   78  68  71 S6        30.21F
ANNAPOLIS      MOSUNNY   79  69  71 CALM      30.22S
ANDREWS AFB    NOT AVBL
WILMINGTON DE  SUNNY     79  70  74 S3        30.23F
PHILADELPHIA   MOSUNNY   79  64  60 S5        30.22F
WILDWOOD NJ*   SUNNY     75  66  73 CALM      30.25R
ATLANTIC CITY  SUNNY     78  66  66 NE3       30.23F
HENDERSON NC   SUNNY     80  66  62 CALM      30.24S
GREENSBORO     PTSUNNY   79  69  71 S5        30.25R
ROCKY MOUNT    CLOUDY    75  72  90 E5        30.24S
FAYETTEVILLE   SUNNY     80  73  79 VRB5      30.22S
CHARLOTTE      PTSUNNY   79  68  69 E5        30.25R
$$

VAZ100-121500-
MARINE

STATION/POSITION TIME  TEMP    WIND        PRES    WAVE   SWELL
                       AIR SEA DIR/SP/G            HT/PER HT/PER
                 (UTC) (F)     (DEG/KT/KT) (MB)    (FT/S) (FT/S)
44066 TX TWR #4  1400   70 71   40/  4/  6 1023.9S   2/ 8   2/ 8
CAPE MAY NJ      1400   71 72  270/  5/  6 1023.6R
LEWES DE         1400   71 71   50/  6/  7 1023.1R
15NM E FENWICK I 1400   73 74              1024.0R   1/ 6
OCEAN-CITY-INLET 1400   73 68   70/  3/  4 1023.7R
WACHAPREAGUE VA  1400   74 76   40/  4/  8 1023.7R
THOMAS POINT MD  1400   75 80  190/  3/  3 1023.9F
GOOSES REEF MD   1400   76     230/  4/  6 1024.1R
COVE POINT MD    1400   75     180/  7/  8 1023.4S
SOLOMONS ISLAND  1400      80                N/A
BISHOPS HEAD MD  1400   75 80  130/  5/  6 1023.5R
PINEY POINT MD   1400          180/  3/  3   N/A
POTOMAC MD       1400   76     190/  4/  4 1022.8F
CAMBRIDGE MD     1400   77 81  220/  3/  5 1023.0R
LEWISETTA VA     1400   76 81   90/  2/  3 1023.4R
RAPPAHANNOCK LGT 1400           40/  2/  2 1024.2S
STINGRAY PT      1400   76     310/  4/  4 1022.9R
YORK RVR RNG VA  1400   76      30/  4/  5 1023.0R
YORKTOWN VA      1400   76 80   CALM  /  2 1023.3R
JAMESTOWN VA     1400   72     320/  4/  6   N/A
DOMINION TERM VA 1400   76     290/  2/  3 1023.5R
KIPTOPEKE VA     1400      78  330/  2/  3   N/A
CHES BAY BRIDGE  1400   73 75   70/  6/  7 1023.0R
CAPE HENRY VA    1400   73      40/  5/  5 1022.3F
WILLOUBY STN VA  1400   81      50/  5/  5 1022.8R
S CRANEY ISL VA  1400          330/  5/  7 1023.5R
CAPE HENRY BUOY  1400      76                N/A     2/ 9
1ST LANDING BUOY 1400   72      80/  4/  6 1023.0F
CAPE CHARLES BUO 1400      76                N/A     2/ 8
OFFSHORE WE BUOY 1400      76                N/A     2/ 9
64NM E OF VA BCH 1400   75 76   40/  8/ 10 1022.8R   2/ 7   2/ 7
DUCK PIER NC     1400   73 73   10/  5/  6 1022.9R
44056 DUCK FRF   1400                        N/A     2/ 4
OREGON INLET NC  1400   76 76   20/  8/ 10 1023.3R
HATTERAS NC      1400   77 81   40/  7/ 10 1023.8R
DIAMOND SHLS NC  1400          VRB 12/ 19  1023.2R   2/ 7   2/ 7
CAPE LOOKOUT NC  1300   78      10/  7/  8 1022.7R
$$


USA.gov is the U.S. government's official web portal to all federal, state and local government web resources and services.